This is the latest recevied weather packets stored in our database for station/object K4GDX. If no packets are shown the sender has not sent any weather packets the latest 10 day(s).
| Time | Temp. | Humidity | Pressure | Rain* | Wind** | Luminosity | Snow |
|---|---|---|---|---|---|---|---|
| 1777552395 | 23.33° C | 84% | 1009.9 hPa | 0 mm | - | 109 W/m² | - |
| 1777552097 | 23.33° C | 84% | 1010 hPa | 0 mm | - | 77 W/m² | - |
| 1777551792 | 23.33° C | 84% | 1010.2 hPa | 0 mm | - | 69 W/m² | - |
| 1777551491 | 23.33° C | 84% | 1010.1 hPa | 0 mm | - | 72 W/m² | - |
| 1777551192 | 22.78° C | 84% | 1010.1 hPa | 0 mm | - | 116 W/m² | - |
| 1777550892 | 22.78° C | 85% | 1010.2 hPa | 0 mm | - | 111 W/m² | - |
| 1777550591 | 22.78° C | 85% | 1010.3 hPa | 0 mm | - | 88 W/m² | - |
| 1777550291 | 22.78° C | 84% | 1010.2 hPa | 0 mm | - | 67 W/m² | - |
| 1777549988 | 22.78° C | 84% | 1010.2 hPa | 0 mm | - | 62 W/m² | - |
| 1777549687 | 22.78° C | 84% | 1010.3 hPa | 0 mm | - | 62 W/m² | - |
| 1777549388 | 22.78° C | 84% | 1010.2 hPa | 0 mm | - | 54 W/m² | - |
| 1777549091 | 22.78° C | 84% | 1010.2 hPa | 0 mm | - | 47 W/m² | - |
| 1777548792 | 22.22° C | 84% | 1010.2 hPa | 0 mm | - | 37 W/m² | - |
| 1777548486 | 22.22° C | 84% | 1010.2 hPa | 0 mm | - | 32 W/m² | - |
| 1777548186 | 22.22° C | 84% | 1010.2 hPa | 0 mm | - | 26 W/m² | - |
| 1777547885 | 22.22° C | 84% | 1009.9 hPa | 0 mm | - | 23 W/m² | - |
| 1777547587 | 22.22° C | 84% | 1009.9 hPa | 0 mm | - | 18 W/m² | - |
| 1777547283 | 22.22° C | 84% | 1009.8 hPa | 0 mm | - | 14 W/m² | - |
| 1777546980 | 22.22° C | 84% | 1009.6 hPa | 0 mm | - | 12 W/m² | - |
| 1777546681 | 22.22° C | 83% | 1009.3 hPa | 0 mm | - | 7 W/m² | - |
| 1777546377 | 22.22° C | 83% | 1009.2 hPa | 0 mm | - | 0 W/m² | - |
| 1777546084 | 22.22° C | 83% | 1009.1 hPa | 0 mm | - | 0 W/m² | - |
| 1777545778 | 22.22° C | 83% | 1009.1 hPa | 0 mm | - | 0 W/m² | - |
| 1777545467 | 22.22° C | 83% | 1009.2 hPa | 0 mm | - | 0 W/m² | - |
| 1777545167 | 22.22° C | 82% | 1009.1 hPa | 0 mm | - | 0 W/m² | - |
* Rain latest hour (hover to see other rain measurements)
** Current wind speed in m/s (hover to see current wind gust speed)